User: anonymous   Login
Location: Bakov nad Jizerou
(50.4784°N, 14.9394°E)
Time: 16:34:16
(UTC+00:00)
Language:

Lacrosse 5 rocket - Orbit

View from above orbital plane
View from above orbital plane
View from above satellite
View from above satellite

Ground track
Ground track

The orbit data is extracted from the following two-line orbital elements,

1 28647U 05016B   21270.11681572  .00000465  00000-0  44813-4 0  9991
2 28647  56.9971 141.9121 0118319 265.5990  93.1522 15.06578345130273
Epoch (UTC): 27 September 2021 02:48:12
Eccentricity: 0.0118319
inclination: 56.9971°
perigee height: 465 km
apogee height: 628 km
right ascension of ascending node: 141.9121°
argument of perigee: 265.5990°
revolutions per day: 15.06578345
mean anomaly at epoch: 93.1522°
orbit number at epoch: 13027

The dashed part of the orbit path shows where the satellite is in the earth's shadow,  

DLR